#timestamp,LO_Frequency,Hit,StdDev 
1546257615.3,286047001.6,N
1546257635.2,286047003.6,N
1546257655.9,286047004.2,N
1546257675.7,286047001.7,N
1546257695.6,286047004.4,N
1546257715.4,286047002.2,N
1546257735.2,286047002.2,N
1546257755.1,286047001.5,N
1546257756.0,286047001.5,N
1546257775.8,286047002.3,N
1546257795.7,286047002.5,N
1546257815.5,286047002.4,N
1546257835.3,286047000.2,N
1546257855.2,286047001.9,N
1546257875.0,286047002.2,N
1546257875.9,286047002.2,N
1546257895.7,286047002.3,N
1546257915.6,286047002.6,N
1546257935.4,286047002.8,N
1546257955.3,286047001.0,N
1546257975.1,286046999.9,N
1546257976.0,286046999.9,N
1546257995.8,286047000.4,N
1546258015.7,286046999.8,N
1546258035.5,286046998.3,N
1546258055.3,286047000.8,N
1546258075.2,286046998.9,N
1546258095.0,286046999.4,N
1546258095.9,286046999.4,N
1546258115.8,286046999.0,N
1546258135.6,286046999.1,N
1546258155.4,286046998.1,N
1546258175.3,286046998.7,N
1546258195.1,286047000.9,N
1546258215.9,286046999.3,N
1546258235.7,286046999.1,N
1546258255.5,286046996.9,N
1546258275.4,286046999.0,N
1546258295.2,286046999.3,N
1546258315.0,286046996.5,N
1546258315.9,286046996.5,N
1546258335.8,286046999.0,N
1546258355.6,286046997.6,N
1546258375.5,286046997.4,N
1546258395.3,286046996.8,N
1546258415.1,286046996.5,N
1546258435.9,286046996.7,N
1546258455.7,286046997.2,N
1546258475.5,286046999.6,N
1546258495.4,286046999.2,N
1546258515.2,286046998.3,N
1546258535.1,286046998.7,N
1546258536.0,286046998.7,N
1546258555.8,286047000.8,N
1546258575.6,286046998.4,N
1546258595.5,286046998.6,N
1546258615.3,286046998.7,N
1546258635.1,286046999.3,N
1546258655.9,286046999.4,N
1546258675.7,286046999.2,N
1546258695.6,286046999.6,N
1546258715.4,286046999.3,N
1546258735.2,286046996.5,N
1546258755.1,286046997.9,N
1546258756.0,286046997.9,N
1546258775.8,286046996.7,N
1546258795.6,286046999.4,N
1546258815.5,286046996.6,N
1546258835.3,286046999.4,N
1546258855.2,286047001.0,N
1546258875.9,286046998.4,N
1546258895.7,286046999.3,N
1546258915.6,286046998.9,N
1546258935.4,286046999.5,N
1546258955.2,286046996.6,N
1546258975.1,286046998.4,N
1546258976.0,286046998.4,N
1546258995.8,286047000.9,N
1546259015.7,286046998.7,N
1546259035.5,286046996.8,N
1546259055.3,286046994.9,Y
1546259075.2,286046997.3,P
1546259095.9,286046996.8,P
1546259115.7,286046999.6,N
1546259135.6,286046998.2,N
1546259155.4,286047001.1,N
1546259175.3,286047000.6,N
1546259195.1,286047000.4,N
1546259196.0,286047000.4,N
1546259215.8,286047000.2,N
1546259235.7,286047000.6,N
1546259255.5,286047000.6,N
1546259275.3,286046999.9,N
1546259295.2,286047000.2,N
1546259315.0,286047000.3,N
1546259315.9,286047000.3,N
1546259335.8,286047002.7,N
1546259355.6,286047000.6,N
1546259375.4,286046998.9,N
1546259395.3,286046998.9,N
1546259415.1,286046998.8,N
1546259435.8,286047000.0,N
1546259455.7,286046998.3,N
1546259475.5,286046996.6,N
1546259495.3,286046999.0,N
1546259515.2,286046998.6,N
1546259535.0,286046996.9,N
1546259535.9,286046996.9,N
1546259555.8,286046998.9,N
1546259575.6,286047001.0,N
1546259595.4,286046998.9,N
1546259615.3,286047000.6,N
1546259635.1,286047000.9,N
1546259655.8,286047000.7,N
1546259675.7,286047000.4,N
1546259695.5,286046998.2,N
1546259715.4,286047000.0,N
1546259735.2,286047000.5,N
1546259755.0,286047001.0,N
1546259755.9,286047001.0,N
1546259775.8,286047001.2,N
1546259795.6,286047000.8,N
1546259815.5,286046998.2,N
1546259835.3,286046998.1,N
1546259855.1,286046999.0,N
1546259875.9,286047001.2,N
1546259895.7,286047000.7,N
1546259915.5,286047000.6,N
1546259935.4,286046998.2,N
1546259955.2,286047000.8,N
1546259975.1,286047000.6,N
1546259976.0,286047000.6,N
1546259995.8,286047000.6,N
1546260015.6,286046999.3,N
1546260035.5,286047000.8,N
1546260055.3,286047000.7,N
1546260075.1,286047001.1,N
1546260095.9,286047001.2,N
1546260115.7,286047001.0,N
1546260135.6,286046998.7,N
1546260155.4,286046999.4,N
1546260175.2,286046998.9,N
1546260195.1,286046999.2,N
1546260196.0,286046999.2,N
1546260215.8,286046996.6,Y
1546260235.6,286046998.6,P
1546260255.5,286046998.9,N
1546260275.3,286046999.0,N
1546260295.2,286046997.2,Y
1546260315.9,286046997.1,P
1546260335.7,286046996.8,P
1546260355.6,286046997.7,N
1546260375.4,286046997.6,N
1546260395.2,286046995.0,Y
1546260415.1,286046999.7,P
1546260416.0,286046999.7,N
1546260435.8,286046999.9,N
1546260455.7,286047000.4,N
1546260475.5,286046998.5,N
1546260495.3,286047001.1,N
1546260515.2,286047000.3,N
1546260535.0,286046999.7,N
1546260535.9,286046999.7,N
1546260555.7,286046999.7,N
1546260575.6,286047001.4,N
1546260595.4,286047001.5,N
1546260615.3,286047004.4,Y
1546260635.1,286046999.8,P
1546260655.8,286047000.1,N
1546260675.7,286047002.4,P
1546260695.5,286047002.3,N
1546260715.3,286047001.7,N
1546260735.2,286047001.3,N
1546260755.0,286046999.7,N
1546260755.9,286046999.7,N
1546260775.8,286047000.3,N
1546260795.6,286047000.5,N
1546260815.4,286047002.6,N
1546260835.3,286047002.1,N
1546260855.1,286047001.9,N
1546260875.8,286047001.9,N
1546260895.7,286047002.3,N
1546260915.5,286047001.0,N
1546260935.4,286047000.8,N
1546260955.2,286046998.3,N
1546260975.0,286047000.4,N
1546260975.9,286047000.4,N
1546260995.8,286047002.3,N
1546261015.6,286047000.1,N
1546261035.4,286047000.2,N
1546261055.3,286047001.6,N
1546261075.1,286046999.8,N
1546261095.9,286047002.5,N
1546261115.7,286047001.4,N
1546261135.5,286047001.8,N
1546261155.4,286047001.6,N
1546261175.2,286047001.5,N
1546261195.0,286047001.6,N
1546261195.9,286047001.6,N
